STARLINK-1153, 45080

Orbit data source: Space-Track

STARLINK-1153, 45080 is a payload satellite owned by SpaceX/Seattle (US) in LEO that was launched on Wed, 29 Jan 2020 UTC via an FALCON 9 launch vehicle from the Air Force Eastern Test Range (AFETR). Payload-class satellites include a variety of spacecraft equipped with specific instruments for various scientific and technological missions. These include communications satellites like Starlink; space stations such as the ISS; scientific satellites like the Hubble; Earth observation satellites from companies like Planet Labs, Umbra, and HawkEye 360; GPS; miniature CubeSats for education and research; and military/defense satellites.

Loading next visibility...
Identifier
45080, 2020-006AN
Orbit
LEO
Country
Flag of USUS
Related business
Manufacturer
SpaceX/Seattle
Mission
Operational Commercial Communications
Bus & Motor
STARLINK, Unknown motor
Mass
260 kg wet, ~248 kg dry
Launch date (UTC)
2020-01-29 (6 years ago)
Launch vehicle
FALCON 9
Launch site
Air Force Eastern Test Range (AFETR)
Object type
Payload
Rocket body
Debris
Shape & HBR
Box + 1 Pan, 10.1 m
Radar Cross Section
13.562 m², Large (>1 m²)

Expand to show TLE details & history
Last TLE update: 1 day ago

TLE from 1 day ago
0 STARLINK-1153
1 45080U 20006AN  25312.10213613  .00000327  00000-0  40875-4 0  9995
2 45080  53.0571  92.4454 0001743  87.5928 272.5261 15.06376516318414
Epoch: 2025-11-08T02:27Z
TLE epoch observation values (Epoch: 2025-11-08T02:27:04.561Z)
Latitude
0.00001°
Longitude
8.13983°
Altitude
548.11 km
Speed
7.589 km/s
True Right ascension
06h 09m 46s
True Declination
0° 00' 00"
Sunlit
Object was in full shadow at epoch
Visualization orbit readout
Latitude
Unknown
Longitude
Unknown
Altitude
Unknown
Speed
Unknown
Apparent Right ascension
Unknown
Apparent Declination
Unknown
Sunlit
N/A
Visualization observer readout
Local Sidereal Time
03:29:29
Azimuth
Unknown
Elevation
Unknown
Doppler factor
Unknown
Orbital elements
Apogee altitude
548.761 km
Perigee altitude
546.347 km
Semi-major axis
6,925.691 km
Eccentricity
0.00017
Inclination
53.0571°
RAAN
92.4454°
Arg. of periapsis
87.5928°
True anomaly
272.50615°
Mean anomaly
272.5261°
Eccentric anomaly
272.51612°
Mean motion
3.76572 °/min
Orbital period
95.6 mins
BSTAR
0.000040875
Loading maneuver chart data...
Computing Atmospheric mass density...

Documentation

Showing up to 5 results
|